GW4476 Weather Reports


time (UTC)temp
F
wind
direction
speed
knots
gust
knots
rain 1hr
in
rain 24hr
in
rain mn
in
humidity
%
barometer
mb
20260505222655 81 236 1.7 9.6 0.00 0.00 0.00 36 955.4
20260505222413 81 98 2.6 8.7 0.00 0.00 0.00 35 955.5
20260505221643 81 211 4.3 12.2 0.00 0.00 0.00 33 955.4
20260505221136 82 231 4.3 12.2 0.00 0.00 0.00 32 955.5
20260505220632 82 213 4.3 8.7 0.00 0.00 0.00 34 955.6
20260505220125 82 166 5.2 13.0 0.00 0.00 0.00 34 955.5
20260505215619 83 197 5.2 13.0 0.00 0.00 0.00 32 955.6
20260505215114 83 149 4.3 11.3 0.00 0.00 0.00 32 955.6
20260505214608 83 142 6.1 13.9 0.00 0.00 0.00 32 955.5
20260505214101 83 170 5.2 13.9 0.00 0.00 0.00 31 955.6
20260505213556 83 227 4.3 11.3 0.00 0.00 0.00 33 955.5
20260505213313 83 260 5.2 11.3 0.00 0.00 0.00 32 955.4
20260505212544 83 262 4.3 10.4 0.00 0.00 0.00 35 955.3
20260505212038 83 208 4.3 8.7 0.00 0.00 0.00 34 955.3
20260505211531 83 216 3.5 10.4 0.00 0.00 0.00 35 955.3
20260505211028 83 235 3.5 12.2 0.00 0.00 0.00 35 955.4
20260505210528 83 228 5.2 12.2 0.00 0.00 0.00 36 955.4
20260505210026 83 195 6.1 12.2 0.00 0.00 0.00 35 955.4
20260505205528 83 233 5.2 13.0 0.00 0.00 0.00 32 955.4
20260505205027 83 217 5.2 13.0 0.00 0.00 0.00 33 955.3
20260505204526 83 249 6.1 14.8 0.00 0.00 0.00 34 955.3
20260505204022 83 230 6.1 14.8 0.00 0.00 0.00 33 955.4
20260505203522 83 259 5.2 12.2 0.00 0.00 0.00 34 955.5
20260505203025 83 240 6.1 12.2 0.00 0.00 0.00 33 955.6
20260505202525 83 252 6.1 17.4 0.00 0.00 0.00 36 955.6
20260505202022 83 200 5.2 17.4 0.00 0.00 0.00 34 955.5
20260505201523 83 211 6.1 17.4 0.00 0.00 0.00 35 955.6
20260505201024 82 228 7.0 17.4 0.00 0.00 0.00 34 955.7
20260505200747 83 233 7.0 16.5 0.00 0.00 0.00 34 955.5
20260505200022 83 221 6.1 16.5 0.00 0.00 0.00 33 955.7
20260505195522 83 205 5.2 13.9 0.00 0.00 0.00 34 955.8
20260505195026 83 229 6.1 13.9 0.00 0.00 0.00 33 955.9
20260505195004 83 224 6.1 13.0 0.00 0.00 0.00 37 955.9
20260505194016 82 235 6.1 13.9 0.00 0.00 0.00 34 956.1
20260505193743 83 212 5.2 13.9 0.00 0.00 0.00 33 955.9
20260505193019 82 178 6.1 18.2 0.00 0.00 0.00 35 955.9
20260505192737 82 142 7.8 18.2 0.00 0.00 0.00 34 955.9
20260505192012 83 201 7.0 16.5 0.00 0.00 0.00 34 956.1
20260505191512 83 238 5.2 11.3 0.00 0.00 0.00 34 956.1
20260505191012 83 224 5.2 10.4 0.00 0.00 0.00 38 956.1
20260505190734 82 131 7.0 12.2 0.00 0.00 0.00 34 956.1
20260505190015 83 172 6.1 13.9 0.00 0.00 0.00 36 956.3
20260505185736 83 239 4.3 13.9 0.00 0.00 0.00 34 956.3
20260505185010 83 219 4.3 10.4 0.00 0.00 0.00 36 956.3
20260505184508 82 198 6.1 11.3 0.00 0.00 0.00 36 956.4
20260505184007 82 262 7.0 13.0 0.00 0.00 0.00 34 956.6
20260505183509 82 237 7.0 13.0 0.00 0.00 0.00 36 956.6
20260505183009 82 238 6.1 13.0 0.00 0.00 0.00 34 956.7
20260505182506 82 215 6.1 14.8 0.00 0.00 0.00 36 956.7
20260505182006 82 207 7.0 15.6 0.00 0.00 0.00 36 956.7
20260505181505 82 220 6.1 15.6 0.00 0.00 0.00 37 956.9
20260505181007 82 195 4.3 12.2 0.00 0.00 0.00 35 956.9
20260505180507 82 283 4.3 11.3 0.00 0.00 0.00 36 956.9
20260505180451 82 176 6.1 12.2 0.00 0.00 0.00 37 957.1
20260505175506 82 245 6.1 13.0 0.00 0.00 0.00 36 957.0
20260505175006 82 208 5.2 13.0 0.00 0.00 0.00 37 957.1
20260505174508 81 232 6.1 13.0 0.00 0.00 0.00 36 957.0
20260505174003 81 216 6.1 13.9 0.00 0.00 0.00 37 957.1
20260505173502 81 218 7.8 13.9 0.00 0.00 0.00 40 957.1
20260505173002 81 218 7.0 13.0 0.00 0.00 0.00 38 957.2
20260505172502 80 141 7.0 18.2 0.00 0.00 0.00 36 957.1
20260505172003 80 230 7.0 18.2 0.00 0.00 0.00 37 957.3
20260505171502 80 140 7.8 16.5 0.00 0.00 0.00 38 957.3
20260505171223 80 212 7.8 16.5 0.00 0.00 0.00 37 957.3
20260505170501 80 174 6.1 16.5 0.00 0.00 0.00 37 957.4
20260505170221 81 206 6.1 14.8 0.00 0.00 0.00 37 957.5
20260505165457 80 210 7.0 14.8 0.00 0.00 0.00 38 957.5
20260505164957 80 163 7.0 14.8 0.00 0.00 0.00 39 957.6
20260505164722 80 256 7.0 14.8 0.00 0.00 0.00 39 957.8
20260505163958 81 245 6.1 13.9 0.00 0.00 0.00 43 958.0
20260505163720 80 176 7.8 14.8 0.00 0.00 0.00 41 958.0
20260505162959 80 205 7.8 14.8 0.00 0.00 0.00 41 958.1
20260505162458 79 203 7.0 15.6 0.00 0.00 0.00 42 958.4
20260505161959 79 261 7.0 15.6 0.00 0.00 0.00 42 958.3
20260505161459 79 173 6.1 15.6 0.00 0.00 0.00 41 958.4
20260505160952 79 227 7.0 15.6 0.00 0.00 0.00 43 958.5
20260505160717 79 207 6.1 15.6 0.00 0.00 0.00 42 958.4
20260505152952 79 180 4.3 8.7 0.00 0.00 0.00 45 958.5
20260505152452 78 238 4.3 10.4 0.00 0.00 0.00 46 958.5
20260505151952 78 202 5.2 12.2 0.00 0.00 0.00 46 958.6
20260505151447 77 208 5.2 12.2 0.00 0.00 0.00 45 958.7
20260505150946 77 185 5.2 12.2 0.00 0.00 0.00 46 958.7
20260505150443 77 127 6.1 12.2 0.00 0.00 0.00 44 958.7
20260505150157 77 217 5.2 13.9 0.00 0.00 0.00 45 958.8
20260505140433 74 125 0.0 2.6 0.00 0.00 0.00 54 959.1
20260505124307 65 218 1.7 3.5 0.00 0.00 0.00 67 959.5
20260505123800 64 174 1.7 3.5 0.00 0.00 0.00 68 959.5
20260505123254 64 223 0.9 3.5 0.00 0.00 0.00 69 959.6
20260505122749 64 174 0.9 2.6 0.00 0.00 0.00 69 959.6
20260505122242 63 206 0.9 3.5 0.00 0.00 0.00 71 959.5
20260505121736 62 243 0.9 3.5 0.00 0.00 0.00 72 959.6
20260505121237 62 231 0.9 2.6 0.00 0.00 0.00 73 959.6
20260505120724 61 168 0.0 1.7 0.00 0.00 0.00 75 959.6
20260505120218 60 221 0.0 0.9 0.00 0.00 0.00 78 959.4
20260505115711 59 219 0.0 0.9 0.00 0.00 0.00 80 959.4
20260505115435 58 219 0.0 0.9 0.00 0.00 0.00 80 959.4
20260505114701 57 214 0.0 0.0 0.00 0.00 0.00 77 959.4
20260505114154 57 214 0.0 0.0 0.00 0.00 0.00 74 959.4
20260505113649 56 214 0.0 0.0 0.00 0.00 0.00 73 959.3
20260505113142 56 214 0.0 0.0 0.00 0.00 0.00 72 959.3
20260505112637 55 214 0.0 0.0 0.00 0.00 0.00 73 959.3
20260505112131 55 214 0.0 0.0 0.00 0.00 0.00 73 959.3
20260505111624 55 214 0.0 0.0 0.00 0.00 0.00 73 959.2
20260505111118 55 214 0.0 0.0 0.00 0.00 0.00 72 959.1
20260505110612 54 214 0.0 0.0 0.00 0.00 0.00 72 959.0
20260505110106 53 216 0.0 0.0 0.00 0.00 0.00 73 959.1
20260505102020 49 216 0.0 0.0 0.00 0.00 0.00 75 959.0
20260505101512 49 216 0.0 0.0 0.00 0.00 0.00 76 958.9
20260505101007 49 216 0.0 0.0 0.00 0.00 0.00 76 958.9
20260505100502 49 216 0.0 0.0 0.00 0.00 0.00 76 958.8
20260505095954 49 216 0.0 0.0 0.00 0.00 0.00 76 958.6
20260505095708 49 216 0.0 0.0 0.00 0.00 0.00 76 958.5
20260505094942 49 216 0.0 0.0 0.00 0.00 0.00 76 958.4
20260505094436 49 216 0.0 0.0 0.00 0.00 0.00 77 958.4
20260505093930 50 216 0.0 0.0 0.00 0.00 0.00 76 958.4
20260505093423 50 216 0.0 0.0 0.00 0.00 0.00 76 958.4
20260505093143 50 216 0.0 0.0 0.00 0.00 0.00 76 958.3
20260505092413 50 216 0.0 0.0 0.00 0.00 0.00 77 958.2
20260505091906 50 216 0.0 0.0 0.00 0.00 0.00 77 958.4
20260505091400 50 216 0.0 0.0 0.00 0.00 0.00 77 958.4
20260505090854 50 216 0.0 0.0 0.00 0.00 0.00 77 958.4
20260505090348 50 216 0.0 0.0 0.00 0.00 0.00 77 958.3
20260505085849 50 216 0.0 0.0 0.00 0.00 0.00 77 958.5
20260505085350 50 216 0.0 0.0 0.00 0.00 0.00 78 958.4
20260505084848 50 217 0.0 0.0 0.00 0.00 0.00 78 958.5
20260505084345 50 216 0.0 0.0 0.00 0.00 0.00 78 958.5
20260505084118 51 216 0.0 0.0 0.00 0.00 0.00 78 958.4
20260505083345 51 216 0.0 0.0 0.00 0.00 0.00 79 958.3
20260505082847 51 216 0.0 0.0 0.00 0.00 0.00 79 958.2
20260505082345 51 216 0.0 0.0 0.00 0.00 0.00 79 958.2
20260505081843 51 216 0.0 0.0 0.00 0.00 0.00 79 958.1
20260505081604 51 216 0.0 0.0 0.00 0.00 0.00 79 958.1
20260505080842 51 216 0.0 0.0 0.00 0.00 0.00 80 958.2
20260505080602 51 216 0.0 0.0 0.00 0.00 0.00 80 958.1
20260505075840 52 216 0.0 0.0 0.00 0.00 0.00 80 958.2
20260505075340 52 216 0.0 0.0 0.00 0.00 0.00 80 958.1
20260505074837 52 217 0.0 0.0 0.00 0.00 0.00 80 958.0
20260505074337 53 216 0.0 0.0 0.00 0.00 0.00 80 958.0
20260505074107 53 216 0.0 0.0 0.00 0.00 0.00 80 958.0
20260505073336 53 216 0.0 0.0 0.00 0.00 0.00 80 958.0
20260505072831 53 217 0.0 0.0 0.00 0.00 0.00 80 957.9
20260505072331 54 216 0.0 0.0 0.00 0.00 0.00 80 958.0
20260505071833 54 216 0.0 0.0 0.00 0.00 0.00 80 957.9
20260505071330 54 217 0.0 0.0 0.00 0.00 0.00 80 957.9
20260505070830 54 216 0.0 0.0 0.00 0.00 0.00 80 957.9
20260505070328 55 216 0.0 0.0 0.00 0.00 0.00 79 957.8
20260505070057 55 216 0.0 0.0 0.00 0.00 0.00 79 958.0
20260505065554 55 216 0.0 0.0 0.00 0.00 0.00 78 957.9
20260505064827 56 216 0.0 0.0 0.00 0.00 0.00 78 957.9
20260505064326 56 216 0.0 0.0 0.00 0.00 0.00 77 957.9
20260505063825 56 216 0.0 0.0 0.00 0.00 0.00 77 958.0
20260505063322 56 216 0.0 0.0 0.00 0.00 0.00 77 958.2
20260505062822 56 217 0.0 0.0 0.00 0.00 0.00 78 958.1
20260505062323 56 216 0.0 0.0 0.00 0.00 0.00 78 958.1
20260505061820 56 216 0.0 0.0 0.00 0.00 0.00 78 958.2
20260505061321 56 216 0.0 0.0 0.00 0.00 0.00 78 958.1
20260505060819 56 216 0.0 0.0 0.00 0.00 0.00 79 958.2
20260505060321 56 216 0.0 0.0 0.00 0.00 0.00 79 958.3
20260505055819 56 215 0.0 0.0 0.00 0.00 0.00 79 958.3
20260505055635 56 216 0.0 0.0 0.00 0.00 0.00 78 958.2
20260505055557 56 216 0.0 0.0 0.00 0.00 0.00 78 958.2
20260505054325 56 216 0.0 0.0 0.00 0.00 0.00 77 958.2
20260505053823 56 216 0.0 0.0 0.00 0.00 0.00 77 958.1
20260505053322 56 216 0.0 0.0 0.00 0.00 0.00 77 958.1
20260505052823 56 216 0.0 0.0 0.00 0.00 0.00 77 958.1
20260505052319 56 216 0.0 0.0 0.00 0.00 0.00 77 958.0
20260505051818 56 215 0.0 0.0 0.00 0.00 0.00 77 958.1
20260505051319 56 216 0.0 0.0 0.00 0.00 0.00 77 958.0
20260505050815 56 216 0.0 0.0 0.00 0.00 0.00 77 958.1
20260505050316 56 216 0.0 0.0 0.00 0.00 0.00 77 958.1
20260505041316 56 216 0.0 0.0 0.00 0.00 0.00 76 957.9
20260505040815 56 215 0.0 0.0 0.00 0.00 0.00 74 957.9
20260505040316 56 216 0.0 0.0 0.00 0.00 0.00 74 957.8
20260505035815 56 216 0.0 0.0 0.00 0.00 0.00 74 957.7
20260505035311 56 216 0.0 0.0 0.00 0.00 0.00 73 957.6
20260505034802 56 215 0.0 0.0 0.00 0.00 0.00 73 957.6
20260505034257 56 216 0.0 0.0 0.00 0.00 0.00 73 957.5
20260505033751 56 216 0.0 0.0 0.00 0.00 0.00 72 957.7
20260505033245 56 216 0.0 0.0 0.00 0.00 0.00 71 957.7
20260505032739 57 216 0.0 0.0 0.00 0.00 0.00 71 957.6
20260505032233 57 216 0.0 0.0 0.00 0.00 0.00 70 957.6
20260505031949 58 216 0.0 0.0 0.00 0.00 0.00 70 957.7
20260505031442 58 216 0.0 0.0 0.00 0.00 0.00 69 957.6
20260505031214 58 216 0.0 0.9 0.00 0.00 0.00 67 957.7
20260505030209 59 216 0.0 2.6 0.00 0.00 0.00 67 957.7
20260505025705 59 216 0.0 2.6 0.00 0.00 0.00 66 957.7
20260505025158 59 167 0.0 0.0 0.00 0.00 0.00 65 957.6
20260505024652 60 167 0.0 0.0 0.00 0.00 0.00 63 957.6
20260505024146 60 168 0.0 0.0 0.00 0.00 0.00 62 957.6
20260505023908 61 168 0.0 0.0 0.00 0.00 0.00 61 957.6
20260505023134 61 167 0.0 0.0 0.00 0.00 0.00 61 957.5
20260505022628 61 168 0.0 0.0 0.00 0.00 0.00 61 957.6
20260505022121 62 168 0.0 0.0 0.00 0.00 0.00 60 957.4
20260505021616 63 168 0.0 0.0 0.00 0.00 0.00 58 957.3
20260505021110 63 168 0.0 0.0 0.00 0.00 0.00 57 957.2
20260505020603 64 168 0.0 0.0 0.00 0.00 0.00 57 957.4
20260505020058 64 168 0.0 0.0 0.00 0.00 0.00 55 957.4
20260505015551 65 168 0.0 0.0 0.00 0.00 0.00 55 957.4
20260505015045 66 168 0.0 0.0 0.00 0.00 0.00 54 957.4
20260505014540 66 168 0.0 2.6 0.00 0.00 0.00 51 957.3
20260505014033 66 173 0.9 2.6 0.00 0.00 0.00 53 957.4
20260505013527 66 226 0.0 2.6 0.00 0.00 0.00 52 957.4
20260505013241 66 229 0.0 2.6 0.00 0.00 0.00 52 957.3
20260505012515 66 203 0.0 2.6 0.00 0.00 0.00 51 957.3
20260505012009 67 236 0.0 0.9 0.00 0.00 0.00 50 957.2
20260505011504 67 236 0.0 0.9 0.00 0.00 0.00 48 957.0
20260505010957 68 236 0.0 0.9 0.00 0.00 0.00 47 957.0
20260505010451 69 236 0.0 1.7 0.00 0.00 0.00 49 957.1
20260505005945 69 236 0.9 6.1 0.00 0.00 0.00 45 957.1
20260505005439 70 245 0.9 6.1 0.00 0.00 0.00 45 957.0
20260505004933 70 252 0.9 4.3 0.00 0.00 0.00 45 956.9
20260505004427 70 233 0.0 2.6 0.00 0.00 0.00 45 956.9
20260505003922 70 219 0.9 3.5 0.00 0.00 0.00 44 956.8
20260505003415 71 238 0.9 3.5 0.00 0.00 0.00 43 956.7
20260505003131 71 226 0.9 3.5 0.00 0.00 0.00 43 956.7
20260505002403 71 269 1.7 4.3 0.00 0.00 0.00 43 956.6
20260505001857 71 229 2.6 7.0 0.00 0.00 0.00 43 956.5
20260505001352 71 248 2.6 7.0 0.00 0.00 0.00 42 956.5
20260505000846 71 126 2.6 9.6 0.00 0.00 0.00 42 956.5
20260505000339 72 212 3.5 9.6 0.00 0.00 0.00 42 956.6
20260504235833 72 146 2.6 7.0 0.00 0.00 0.00 42 956.5
20260504235327 72 265 2.6 9.6 0.00 0.00 0.00 42 956.6
20260504234820 72 229 3.5 9.6 0.00 0.00 0.00 42 956.4
20260504234315 72 229 2.6 8.7 0.00 0.00 0.00 42 956.4
20260504233809 72 238 2.6 8.7 0.00 0.00 0.00 41 956.4
20260504233303 72 193 1.7 6.1 0.00 0.00 0.00 41 956.4
20260504232758 72 264 3.5 11.3 0.00 0.00 0.00 41 956.4
20260504232517 73 232 3.5 11.3 0.00 0.00 0.00 40 956.3
20260504231745 73 218 2.6 7.8 0.00 0.00 0.00 40 956.4
20260504231240 73 150 3.5 7.8 0.00 0.00 0.00 41 956.3
20260504230733 73 232 3.5 8.7 0.00 0.00 0.00 40 956.4
20260504230227 73 169 3.5 9.6 0.00 0.00 0.00 40 956.4
20260504225727 74 167 3.5 9.6 0.00 0.00 0.00 40 956.4
20260504225445 74 230 3.5 9.6 0.00 0.00 0.00 40 956.5
20260504224727 74 180 4.3 10.4 0.00 0.00 0.00 39 956.6
20260504224229 75 135 4.3 12.2 0.00 0.00 0.00 39 956.6
20260504223726 75 182 5.2 13.9 0.00 0.00 0.00 38 956.6